Location: Lawrence
(38.9720°N, 95.2350°W)
Time: 12:46:08
(UTC-06:00)

Amateur Radio Satellites - All Passes

Search period start: 03 March 2015 12:16
Search period end: 04 March 2015 12:16
Location: Lawrence, 38.9720°N, 95.2350°W

Satellite Date Start Highest point End Downlink Frequencies (MHz)
Time Altitude Azimuth
CUBEBUG 1 03 Mar 12:34:52 12:38:39 27° 290° (WNW) 12:42:19 437.445
AISAT 03 Mar 12:35:22 12:37:32 13° 295° (WNW) 12:39:29 437.250
VELOX 1 03 Mar 12:45:24 12:46:37 11° 297° (WNW) 12:47:36 145.980
ESTCUBE 1 03 Mar 13:02:36 13:05:13 15° 295° (WNW) 13:07:37 437.505/2401.250
SPROUT 03 Mar 13:03:37 13:07:47 50° 287° (WNW) 13:11:55 437.525
SWISSCUBE 03 Mar 13:03:59 13:07:40 22° 93° (E) 13:11:28 437.505
TISAT 1 03 Mar 13:04:46 13:08:54 54° 286° (WNW) 13:12:59 437.305
BEESAT 03 Mar 13:12:18 13:16:12 25° 94° (E) 13:20:11 436.000
Gurwin Techsat 1B 03 Mar 13:22:15 13:26:54 33° 69° (ENE) 13:31:40 435.225
AO-7 03 Mar 13:30:54 13:35:17 16° 51° (NE) 13:40:05 29.400- 29.500
ITUPSAT 1 03 Mar 13:39:39 13:44:19 47° 99° (E) 13:48:58 437.325
ITAMSAT 1 03 Mar 13:44:41 13:49:52 73° 75° (ENE) 13:55:07 435.822/435.867
Oscar 19 03 Mar 13:45:12 13:49:58 37° 263° (W) 13:54:42 437.125/150
HORYU 2 03 Mar 14:11:50 14:15:17 23° 69° (ENE) 14:18:51 437.375
JAS-2 03 Mar 14:20:07 14:21:38 11° 56° (NE) 14:23:34 435.910
ISS 03 Mar 14:35:11 14:37:58 26° 28° (NNE) 14:40:48 145.825
SWISSCUBE 03 Mar 14:41:15 14:45:40 36° 290° (WNW) 14:50:01 437.505
KKS-1 03 Mar 14:46:53 14:51:10 46° 99° (E) 14:55:26 437.445
BEESAT 03 Mar 14:49:49 14:54:06 32° 290° (WNW) 14:58:20 436.000
STARS 03 Mar 14:51:29 14:55:26 32° 97° (E) 14:59:23 437.465
Gurwin Techsat 1B 03 Mar 15:02:17 15:06:54 29° 265° (W) 15:11:30 435.225
YUBILEINY 03 Mar 15:12:08 15:19:13 30° 85° (E) 15:26:35 435.215
ITUPSAT 1 03 Mar 15:18:33 15:21:53 18° 294° (WNW) 15:25:05 437.325
AO-7 03 Mar 15:18:34 15:26:51 73° 70° (ENE) 15:35:10 29.400- 29.500
ITAMSAT 1 03 Mar 15:27:42 15:30:02 12° 272° (W) 15:32:02 435.822/435.867
HORYU 2 03 Mar 15:47:55 15:51:51 30° 264° (W) 15:55:44 437.375
VERMONT LUNAR 03 Mar 15:49:26 15:50:23 11° 144° (SE) 15:51:28 437.305
JAS-2 03 Mar 16:00:12 16:05:39 81° 75° (ENE) 16:11:48 435.910
MOZHAYETS 4 03 Mar 16:05:44 16:08:31 16° 91° (E) 16:11:30
ISS 03 Mar 16:11:28 16:14:27 34° 225° (SW) 16:17:25 145.825
KKS-1 03 Mar 16:24:42 16:27:29 16° 294° (WNW) 16:30:06 437.445
STARS 03 Mar 16:28:23 16:31:45 21° 292° (WNW) 16:34:59 437.465
BEESAT 3 03 Mar 16:34:56 16:38:33 31° 115° (ESE) 16:42:15 437.485
M-CUBED/EXP-1 PRIME 03 Mar 16:50:21 16:54:38 60° 106° (ESE) 16:59:12 437.505
AUBIESAT-1 03 Mar 16:51:32 16:55:47 55° 105° (ESE) 17:00:20 437.475
BEESAT 2 03 Mar 17:01:07 17:05:07 53° 117° (ESE) 17:09:11 435.950
AIST 2 03 Mar 17:04:51 17:08:03 22° 112° (ESE) 17:11:23 435.215
YUBILEINY 03 Mar 17:07:04 17:15:37 56° 283° (WNW) 17:24:13 435.215
AO-7 03 Mar 17:14:05 17:20:29 23° 268° (W) 17:26:31 29.400- 29.500
Cubesat XI-IV 03 Mar 17:18:59 17:24:02 44° 71° (ENE) 17:29:09 437.490
VERMONT LUNAR 03 Mar 17:24:26 17:27:49 48° 158° (SSE) 17:31:12 437.305
CUTE-I 03 Mar 17:27:32 17:32:42 52° 72° (ENE) 17:37:56 437.470
PHONESAT 2.4 03 Mar 17:35:27 17:38:42 32° 153° (SSE) 17:42:01 2401.200-2431.200
MOZHAYETS 4 03 Mar 17:41:36 17:46:03 46° 287° (WNW) 17:50:29
JAS-2 03 Mar 17:49:49 17:51:56 12° 277° (W) 17:53:41 435.910
CUBESAT XI-V 03 Mar 18:06:46 18:10:31 24° 93° (E) 18:14:20 437.345
BEESAT 3 03 Mar 18:13:19 18:16:42 24° 312° (NW) 18:20:03 437.485
AIST 1 03 Mar 18:18:22 18:22:47 66° 81° (E) 18:27:07
O/OREOS (USA 219) 03 Mar 18:23:10 18:26:52 24° 58° (ENE) 18:30:36 437.305
PRISM 03 Mar 18:25:05 18:28:58 35° 97° (E) 18:32:52 437.425
M-CUBED/EXP-1 PRIME 03 Mar 18:26:54 18:29:14 14° 298° (WNW) 18:31:28 437.505
AUBIESAT-1 03 Mar 18:27:47 18:30:21 15° 297° (WNW) 18:32:51 437.475
STRAND 1 03 Mar 18:36:48 18:41:13 29° 95° (E) 18:45:41 437.568
BEESAT 2 03 Mar 18:40:56 18:43:39 16° 316° (NW) 18:46:16 435.950
AIST 2 03 Mar 18:42:33 18:46:29 35° 308° (NW) 18:50:26 435.215
Cubesat XI-IV 03 Mar 19:00:10 19:04:23 22° 267° (W) 19:08:27 437.490
VERMONT LUNAR 03 Mar 19:02:12 19:05:41 70° 353° (N) 19:09:11 437.305
CUTE 1.7 + AOD 2 03 Mar 19:06:33 19:07:01 10° 65° (ENE) 19:07:44 437.475
CUTE-I 03 Mar 19:09:21 19:13:09 19° 269° (W) 19:16:46 437.470
PHONESAT 2.4 03 Mar 19:13:22 19:17:01 84° 348° (NNW) 19:20:40 2401.200-2431.200
BRITE-PL 03 Mar 19:14:04 19:18:50 30° 70° (ENE) 19:23:31 437.365/2234.400
GOMX 1 03 Mar 19:14:34 19:18:16 20° 68° (ENE) 19:22:01 467.674
HO-68 03 Mar 19:20:48 19:27:04 36° 65° (ENE) 19:33:27 435.675
PCSat 03 Mar 19:21:53 19:25:12 17° 106° (ESE) 19:28:46 145.827
DOVE 4 03 Mar 19:43:48 19:47:53 26° 70° (ENE) 19:51:57 437.250
CUBESAT XI-V 03 Mar 19:43:48 19:48:01 32° 289° (WNW) 19:52:10 437.345
AAUSAT CUBESAT 2 03 Mar 19:44:03 19:46:37 17° 68° (ENE) 19:49:19 437.432
CINEMA 3 03 Mar 19:45:47 19:47:55 13° 66° (ENE) 19:50:16 145.822/145.860
COMPASS 1 03 Mar 19:47:00 19:50:02 21° 69° (ENE) 19:53:11 437.405
PRISM 03 Mar 20:01:14 20:04:15 19° 292° (WNW) 20:07:09 437.425
O/OREOS (USA 219) 03 Mar 20:02:14 20:06:22 32° 255° (WSW) 20:10:23 437.305
SEEDS 03 Mar 20:14:54 20:18:57 52° 75° (ENE) 20:23:03 437.485
STRAND 1 03 Mar 20:15:52 20:20:25 32° 291° (WNW) 20:24:53 437.568
CANX-2 03 Mar 20:19:48 20:24:00 81° 79° (ENE) 20:28:15 2200.000
FUNcube-1 03 Mar 20:32:02 20:34:12 14° 67° (ENE) 20:36:33 145.935
ZACube-1 03 Mar 20:33:30 20:35:52 15° 67° (ENE) 20:38:23 437.345
CUTE 1.7 + AOD 2 03 Mar 20:38:16 20:42:27 68° 259° (W) 20:46:40 437.475
UKube-1 03 Mar 20:38:46 20:41:25 16° 66° (ENE) 20:44:13 .
VERMONT LUNAR 03 Mar 20:40:14 20:43:44 81° 13° (NNE) 20:47:13 437.305
DELFI C3 03 Mar 20:44:03 20:47:29 28° 71° (ENE) 20:51:00 145.870
GOMX 1 03 Mar 20:50:51 20:56:06 51° 261° (W) 21:01:07 467.674
PHONESAT 2.4 03 Mar 20:51:58 20:55:36 70° 5° (N) 20:59:14 2401.200-2431.200
BRITE-PL 03 Mar 20:52:02 20:57:14 36° 264° (W) 21:02:13 437.365/2234.400
UWE-3 03 Mar 20:53:40 20:57:30 30° 72° (ENE) 21:01:20 435.000/436.395/437.385
PCSat 03 Mar 21:02:49 21:08:10 60° 301° (WNW) 21:13:34 145.827
HO-68 03 Mar 21:07:57 21:14:42 43° 262° (W) 21:21:25 435.675
AAUSAT CUBESAT 2 03 Mar 21:18:09 21:22:01 37° 263° (W) 21:25:53 437.432
Oscar 11 03 Mar 21:18:35 21:22:54 84° 261° (W) 21:27:13 145.826/435.025
CINEMA 3 03 Mar 21:20:00 21:24:46 62° 260° (W) 21:29:19 145.822/145.860
GONETS M04 03 Mar 21:20:00 21:27:59 44° 89° (E) 21:36:05
DOVE 4 03 Mar 21:20:48 21:25:32 35° 263° (W) 21:30:02 437.250
COMPASS 1 03 Mar 21:21:56 21:25:36 30° 264° (W) 21:29:15 437.405
CUBEBUG 2 03 Mar 21:32:55 21:37:27 80° 258° (WSW) 21:41:51 437.445
DX 1 03 Mar 21:44:46 21:49:10 88° 248° (WSW) 21:53:36 434.975-435.025
50 SAT 03 Mar 21:46:22 21:49:55 32° 72° (ENE) 21:53:29 437.505
SEEDS 03 Mar 21:53:37 21:55:11 12° 271° (W) 21:56:31 437.485
AISAT 03 Mar 21:53:42 21:57:59 45° 73° (ENE) 22:02:18 437.250
CUBEBUG 1 03 Mar 21:54:20 21:57:26 19° 68° (ENE) 22:00:41 437.445
HUMSAT D 03 Mar 22:01:18 22:05:29 74° 76° (ENE) 22:09:39 437.325/437.525
VELOX 1 03 Mar 22:02:32 22:06:54 55° 74° (ENE) 22:11:19 145.980
FUNcube-1 03 Mar 22:05:58 22:10:13 50° 261° (W) 22:14:24 145.935
ZACube-1 03 Mar 22:07:42 22:11:56 47° 261° (W) 22:16:05 437.345
UKube-1 03 Mar 22:13:07 22:17:16 43° 261° (W) 22:21:27 .
RS-15 03 Mar 22:16:11 22:25:43 39° 109° (ESE) 22:35:34 29.354- 29.394
VERMONT LUNAR 03 Mar 22:18:20 22:21:29 32° 207° (SSW) 22:24:37 437.305
DELFI C3 03 Mar 22:19:42 22:22:44 20° 267° (W) 22:25:42 145.870
ESTCUBE 1 03 Mar 22:22:48 22:27:03 43° 72° (ENE) 22:31:23 437.505/2401.250
PHONESAT 2.4 03 Mar 22:30:30 22:34:03 51° 202° (SSW) 22:37:33 2401.200-2431.200
UWE-3 03 Mar 22:30:34 22:34:06 22° 266° (W) 22:37:28 435.000/436.395/437.385
UNISAT 6 03 Mar 22:34:23 22:38:24 38° 98° (E) 22:42:29 437.425
QB50P1 03 Mar 22:39:44 22:43:06 23° 94° (E) 22:46:31 145.935-145.965
QB50P2 03 Mar 22:43:52 22:47:26 26° 95° (E) 22:51:02 145.880/145.840
BUGSAT 1 03 Mar 22:44:05 22:46:57 18° 92° (E) 22:49:54 437.445
PCSat 03 Mar 22:51:32 22:52:51 11° 322° (NW) 22:53:55 145.827
DANDE 03 Mar 22:56:55 23:01:06 18° 94° (E) 23:04:55 436.750
DUCHIFAT 1 03 Mar 22:57:37 23:01:30 36° 97° (E) 23:05:24 145.980
TIGRISAT 03 Mar 22:58:40 23:02:58 72° 103° (ESE) 23:07:18 435.000
ANTELSAT 03 Mar 23:12:59 23:17:17 75° 284° (WNW) 23:21:38 437.575/2403.000
GONETS M04 03 Mar 23:16:58 23:24:57 38° 288° (WNW) 23:32:51
CUSAT 1 03 Mar 23:18:09 23:23:38 33° 97° (E) 23:28:02 437.405
POPSAT HIP 1 03 Mar 23:18:58 23:23:11 68° 101° (E) 23:27:22 437.405
POLYITAN 1 03 Mar 23:19:06 23:23:19 70° 101° (E) 23:27:30 437.675
50 SAT 03 Mar 23:22:20 23:25:02 17° 268° (W) 23:27:37 437.505
CUBEBUG 1 03 Mar 23:29:26 23:33:35 37° 263° (W) 23:37:44 437.445
AISAT 03 Mar 23:32:04 23:34:53 16° 269° (W) 23:37:32 437.250
NANOSAT C BR1 03 Mar 23:41:41 23:45:53 64° 285° (WNW) 23:50:02 145.865
VELOX 1 03 Mar 23:41:46 23:43:54 13° 270° (W) 23:45:48 145.980
TISAT 1 03 Mar 23:55:32 23:59:49 86° 257° (WSW) 00:04:08 437.305
SPROUT 03 Mar 23:56:13 00:00:34 78° 258° (WSW) 00:04:55 437.525
ESTCUBE 1 04 Mar 00:01:13 00:04:12 17° 269° (W) 00:07:02 437.505/2401.250
SWISSCUBE 04 Mar 00:09:45 00:13:27 23° 67° (ENE) 00:17:15 437.505
PHONESAT 2.4 04 Mar 00:10:33 00:12:01 12° 216° (SW) 00:13:23 2401.200-2431.200
UNISAT 6 04 Mar 00:12:01 00:14:58 18° 292° (WNW) 00:17:49 437.425
QB50P1 04 Mar 00:15:23 00:18:59 27° 290° (WNW) 00:22:30 145.935-145.965
BEESAT 04 Mar 00:17:56 00:21:47 26° 68° (ENE) 00:25:47 436.000
BUGSAT 1 04 Mar 00:18:50 00:22:33 32° 289° (WNW) 00:26:11 437.445
QB50P2 04 Mar 00:19:50 00:23:16 24° 290° (WNW) 00:26:37 145.880/145.840
SO-50 04 Mar 00:22:03 00:24:49 16° 110° (ESE) 00:27:49 436.795
RS-15 04 Mar 00:26:58 00:37:42 59° 309° (NW) 00:48:35 29.354- 29.394
DUCHIFAT 1 04 Mar 00:34:14 00:37:07 18° 292° (WNW) 00:39:52 145.980
DANDE 04 Mar 00:37:39 00:44:26 59° 280° (W) 00:49:31 436.750
ITUPSAT 1 04 Mar 00:45:21 00:49:54 47° 72° (ENE) 00:54:32 437.325
BEESAT 3 04 Mar 00:55:43 00:58:22 17° 45° (NE) 01:01:05 437.485
POPSAT HIP 1 04 Mar 00:57:49 00:58:35 10° 296° (WNW) 00:59:06 437.405
POLYITAN 1 04 Mar 00:58:20 00:58:45 10° 296° (WNW) 00:58:55 437.675
CUSAT 1 04 Mar 01:01:12 01:06:28 28° 283° (WNW) 01:10:33 437.405
BEESAT 2 04 Mar 01:22:15 01:25:41 25° 49° (NE) 01:29:07 435.950
YUBILEINY 04 Mar 01:24:54 01:28:21 13° 57° (ENE) 01:32:28 435.215
AIST 2 04 Mar 01:28:12 01:30:13 13° 41° (NE) 01:32:22 435.215
Gurwin Techsat 1B 04 Mar 01:41:00 01:43:32 14° 89° (E) 01:46:23 435.225
KKS-1 04 Mar 01:44:00 01:48:06 37° 71° (ENE) 01:52:14 437.445
SWISSCUBE 04 Mar 01:46:45 01:51:08 35° 263° (W) 01:55:32 437.505
STARS 04 Mar 01:47:40 01:51:19 26° 69° (ENE) 01:55:01 437.465
BEESAT 04 Mar 01:55:17 01:59:33 31° 264° (W) 02:03:48 436.000
Oscar 19 04 Mar 01:57:24 02:02:34 85° 106° (ESE) 02:07:43 437.125/150
ITAMSAT 1 04 Mar 01:59:19 02:03:45 28° 95° (E) 02:08:14 435.822/435.867
SO-50 04 Mar 02:00:28 02:04:57 52° 306° (NW) 02:09:37 436.795
ITUPSAT 1 04 Mar 02:24:58 02:28:08 17° 269° (W) 02:31:07 437.325
BEESAT 3 04 Mar 02:32:46 02:36:47 51° 243° (WSW) 02:40:44 437.485
RS-15 04 Mar 02:45:16 02:53:17 21° 339° (NNW) 03:01:12 29.354- 29.394
BEESAT 2 04 Mar 03:00:13 03:03:53 30° 246° (WSW) 03:07:27 435.950
AIST 2 04 Mar 03:05:08 03:09:25 76° 240° (WSW) 03:13:35 435.215
MOZHAYETS 4 04 Mar 03:07:35 03:09:49 14° 65° (ENE) 03:12:17
JUGNU 04 Mar 03:08:40 03:10:23 11° 178° (S) 03:12:06 437.505
JAS-2 04 Mar 03:11:33 03:15:26 15° 86° (E) 03:19:54 435.910
YUBILEINY 04 Mar 03:18:24 03:27:15 71° 80° (E) 03:36:03 435.215
Gurwin Techsat 1B 04 Mar 03:18:49 03:24:07 67° 286° (WNW) 03:29:23 435.225
KKS-1 04 Mar 03:21:38 03:24:54 19° 267° (W) 03:28:03 437.445
AO-7 04 Mar 03:22:35 03:28:57 25° 93° (E) 03:35:34 29.400- 29.500
STARS 04 Mar 03:23:56 03:27:44 27° 265° (W) 03:31:28 437.465
ITAMSAT 1 04 Mar 03:38:36 03:43:17 33° 291° (WNW) 03:47:52 435.822/435.867
M-CUBED/EXP-1 PRIME 04 Mar 03:39:19 03:42:34 59° 70° (ENE) 03:45:58 437.505
Oscar 19 04 Mar 03:39:24 03:41:18 12° 298° (WNW) 03:42:53 437.125/150
HORYU 2 04 Mar 03:39:49 03:44:11 54° 100° (E) 03:48:35 437.375
AUBIESAT-1 04 Mar 03:40:02 03:43:15 51° 70° (ENE) 03:46:37 437.475
PCSat 04 Mar 04:10:15 04:12:56 14° 41° (NE) 04:15:50 145.827
MOZHAYETS 4 04 Mar 04:42:09 04:46:38 57° 260° (W) 04:51:10
JAS-2 04 Mar 04:53:53 05:01:28 84° 103° (ESE) 05:09:22 435.910
SRMSAT 04 Mar 05:01:18 05:03:12 11° 180° (S) 05:05:06 437.500
RS-15 04 Mar 05:04:03 05:11:26 19° 15° (NNE) 05:19:13 29.354- 29.394
CUBESAT XI-V 04 Mar 05:09:28 05:12:55 21° 68° (ENE) 05:16:30 437.345
AO-7 04 Mar 05:14:13 05:22:26 68° 291° (WNW) 05:30:36 29.400- 29.500
PRISM 04 Mar 05:14:54 05:18:09 23° 69° (ENE) 05:21:29 437.425
YUBILEINY 04 Mar 05:16:42 05:23:20 23° 278° (W) 05:29:34 435.215
HORYU 2 04 Mar 05:18:04 05:20:28 14° 295° (WNW) 05:22:40 437.375
Cubesat XI-IV 04 Mar 05:38:24 05:42:05 19° 91° (E) 05:45:56 437.490
CUTE-I 04 Mar 05:46:36 05:50:42 23° 93° (E) 05:54:55 437.470
STRAND 1 04 Mar 05:51:26 05:56:07 38° 70° (ENE) 06:00:53 437.568
PCSat 04 Mar 05:51:50 05:57:18 83° 64° (ENE) 06:02:43 145.827
JAS-2 04 Mar 06:40:27 06:45:49 21° 298° (WNW) 06:51:05 435.910
CUBESAT XI-V 04 Mar 06:45:47 06:50:09 38° 263° (W) 06:54:32 437.345
AIST 1 04 Mar 06:46:39 06:50:43 41° 93° (E) 06:54:52
PRISM 04 Mar 06:49:59 06:53:33 27° 264° (W) 06:57:06 437.425
AO-7 04 Mar 07:09:38 07:13:54 15° 310° (NW) 07:17:43 29.400- 29.500
ISS 04 Mar 07:15:14 07:16:36 12° 130° (SE) 07:18:06 145.825
RS-15 04 Mar 07:16:58 07:27:47 47° 46° (NE) 07:39:11 29.354- 29.394
Cubesat XI-IV 04 Mar 07:17:20 07:22:32 51° 288° (WNW) 07:27:41 437.490
CUTE-I 04 Mar 07:25:56 07:31:00 43° 289° (WNW) 07:36:00 437.470
STRAND 1 04 Mar 07:31:15 07:35:27 24° 266° (W) 07:39:33 437.568
GONETS M04 04 Mar 07:32:18 07:38:10 20° 63° (ENE) 07:44:27
PCSat 04 Mar 07:38:02 07:40:06 12° 256° (WSW) 07:41:48 145.827
CANX-2 04 Mar 08:07:46 08:10:12 15° 91° (E) 08:12:50 2200.000
CUTE 1.7 + AOD 2 04 Mar 08:25:26 08:28:43 22° 94° (E) 08:32:07 437.475
AIST 1 04 Mar 08:25:56 08:28:40 16° 290° (WNW) 08:31:14
O/OREOS (USA 219) 04 Mar 08:33:58 08:37:58 32° 105° (ESE) 08:42:06 437.305
HO-68 04 Mar 08:36:32 08:43:11 40° 98° (E) 08:49:53 435.675
ISS 04 Mar 08:49:30 08:52:42 61° 324° (NW) 08:55:54 145.825
SO-50 04 Mar 08:53:42 08:56:36 16° 40° (NE) 08:59:40 436.795
GOMX 1 04 Mar 08:54:40 08:58:53 51° 99° (E) 09:02:57 467.674
BRITE-PL 04 Mar 08:58:33 09:03:05 90° 165° (SSE) 09:07:19 437.365/2234.400
AAUSAT CUBESAT 2 04 Mar 09:02:26 09:06:16 34° 97° (E) 09:10:08 437.432
COMPASS 1 04 Mar 09:06:16 09:10:18 44° 98° (E) 09:14:21 437.405
Oscar 11 04 Mar 09:08:05 09:11:08 19° 92° (E) 09:14:18 145.826/435.025
CINEMA 3 04 Mar 09:16:44 09:20:24 30° 96° (E) 09:24:06 145.822/145.860
DOVE 4 04 Mar 09:21:14 09:25:28 70° 101° (E) 09:29:35 437.250
CUBEBUG 2 04 Mar 09:26:09 09:29:17 21° 93° (E) 09:32:32 437.445
GONETS M04 04 Mar 09:27:27 09:36:15 83° 264° (W) 09:45:02
RS-15 04 Mar 09:29:27 09:40:34 55° 247° (WSW) 09:52:00 29.354- 29.394
QB50P1 04 Mar 09:32:19 09:34:58 17° 67° (ENE) 09:37:45 145.935-145.965
UNISAT 6 04 Mar 09:32:38 09:36:27 30° 71° (ENE) 09:40:16 437.425
BUGSAT 1 04 Mar 09:34:21 09:36:12 13° 66° (ENE) 09:38:15 437.445
DX 1 04 Mar 09:35:37 09:38:26 17° 92° (E) 09:41:23 434.975-435.025
SEEDS 04 Mar 09:36:08 09:40:21 65° 284° (WNW) 09:44:33 437.485
QB50P2 04 Mar 09:36:28 09:39:24 19° 68° (ENE) 09:42:28 145.880/145.840
CANX-2 04 Mar 09:42:22 09:46:24 41° 287° (WNW) 09:50:24 2200.000
HUMSAT D 04 Mar 09:48:42 09:50:25 13° 90° (E) 09:52:22 437.325/437.525
DUCHIFAT 1 04 Mar 09:49:24 09:52:51 25° 70° (ENE) 09:56:23 145.980
FUNcube-1 04 Mar 09:55:52 09:59:32 30° 96° (E) 10:03:16 145.935
TIGRISAT 04 Mar 09:56:20 10:00:37 54° 74° (ENE) 10:04:52 435.000
VELOX 1 04 Mar 09:56:53 09:58:11 11° 89° (E) 09:59:46 145.980
ZACube-1 04 Mar 09:57:43 10:01:28 32° 97° (E) 10:05:16 437.345
DELFI C3 04 Mar 09:59:35 10:03:38 59° 100° (E) 10:07:40 145.870
CUTE 1.7 + AOD 2 04 Mar 10:00:59 10:04:41 29° 289° (WNW) 10:08:20 437.475
UKube-1 04 Mar 10:02:05 10:05:59 32° 97° (E) 10:09:54 .
POPSAT HIP 1 04 Mar 10:10:39 10:14:43 43° 73° (ENE) 10:18:48 437.405
ANTELSAT 04 Mar 10:10:48 10:15:13 83° 77° (ENE) 10:19:33 437.575/2403.000
POLYITAN 1 04 Mar 10:11:02 10:15:07 44° 73° (ENE) 10:19:13 437.675
O/OREOS (USA 219) 04 Mar 10:13:44 10:17:29 24° 302° (WNW) 10:21:10 437.305
UWE-3 04 Mar 10:20:37 10:24:47 78° 102° (ESE) 10:28:58 435.000/436.395/437.385
HO-68 04 Mar 10:24:20 10:30:53 38° 295° (WNW) 10:37:19 435.675
ISS 04 Mar 10:27:55 10:29:40 14° 342° (NNW) 10:31:24 145.825
NANOSAT C BR1 04 Mar 10:32:53 10:37:09 80° 76° (ENE) 10:41:27 145.865
SO-50 04 Mar 10:32:53 10:37:51 83° 240° (WSW) 10:42:46 436.795
GOMX 1 04 Mar 10:34:32 10:36:36 13° 295° (WNW) 10:38:27 467.674
AAUSAT CUBESAT 2 04 Mar 10:38:45 10:41:43 19° 291° (WNW) 10:44:34 437.432
COMPASS 1 04 Mar 10:43:14 10:45:41 15° 293° (WNW) 10:48:00 437.405
Oscar 11 04 Mar 10:43:30 10:47:27 34° 288° (WNW) 10:51:21 145.826/435.025
CINEMA 3 04 Mar 10:54:25 10:57:29 20° 291° (WNW) 11:00:27 145.822/145.860
50 SAT 04 Mar 11:00:26 11:04:22 64° 101° (E) 11:08:18 437.505
CUBEBUG 2 04 Mar 11:02:28 11:06:03 28° 289° (WNW) 11:09:35 437.445
QB50P1 04 Mar 11:06:30 11:10:34 41° 262° (W) 11:14:38 145.935-145.965
BUGSAT 1 04 Mar 11:07:05 11:11:17 55° 260° (W) 11:15:31 437.445
UNISAT 6 04 Mar 11:09:50 11:13:19 22° 266° (W) 11:16:38 437.425
DX 1 04 Mar 11:10:48 11:14:53 39° 288° (WNW) 11:18:55 434.975-435.025
QB50P2 04 Mar 11:11:08 11:15:06 36° 263° (W) 11:19:03 145.880/145.840
CUBEBUG 1 04 Mar 11:19:28 11:23:40 42° 98° (E) 11:27:50 437.445
DANDE 04 Mar 11:22:00 11:24:37 74° 263° (W) 11:27:17 436.750
AISAT 04 Mar 11:22:12 11:26:38 73° 285° (WNW) 11:31:01 437.250
HUMSAT D 04 Mar 11:22:35 11:26:32 46° 286° (WNW) 11:30:29 437.325/437.525
DUCHIFAT 1 04 Mar 11:25:00 11:28:38 26° 265° (W) 11:32:14 145.980
GONETS M04 04 Mar 11:27:24 11:31:55 14° 281° (WNW) 11:35:48
VELOX 1 04 Mar 11:30:52 11:35:16 60° 286° (WNW) 11:39:36 145.980
FUNcube-1 04 Mar 11:32:39 11:35:44 20° 291° (WNW) 11:38:45 145.935
ZACube-1 04 Mar 11:34:42 11:37:40 19° 291° (WNW) 11:40:33 437.345
TIGRISAT 04 Mar 11:35:55 11:37:46 12° 270° (W) 11:39:23 435.000
DELFI C3 04 Mar 11:37:06 11:38:24 11° 294° (WNW) 11:39:29 145.870
Oscar 19 04 Mar 11:37:12 11:39:24 13° 63° (ENE) 11:41:51 437.125/150
UKube-1 04 Mar 11:38:39 11:41:59 21° 292° (WNW) 11:45:11 .
CUSAT 1 04 Mar 11:41:19 11:43:25 21° 264° (W) 11:45:34 437.405
TISAT 1 04 Mar 11:42:53 11:45:27 16° 91° (E) 11:48:10 437.305
SPROUT 04 Mar 11:45:09 11:48:15 20° 93° (E) 11:51:27 437.525
POPSAT HIP 1 04 Mar 11:48:19 11:50:52 15° 269° (W) 11:53:15 437.405
POLYITAN 1 04 Mar 11:48:52 11:51:20 14° 269° (W) 11:53:37 437.675
ESTCUBE 1 04 Mar 11:53:16 11:57:50 72° 285° (WNW) 12:02:20 437.505/2401.250
